Location: Unspecified
(44.4377°N, 88.0525°W)
Time: 00:25:44
(UTC-05:00)

Okean 3 - Visible Passes

Search period start: 20 September 2018 00:00
Search period end: 30 September 2018 00:00
Orbit: 576 x 603 km, 82.5° (Epoch: 19 September)

Date Brightness Start Highest point End Pass type
(mag) Time Alt. Az. Time Alt. Az. Time Alt. Az.
20 Sep 4.6 04:58:40 10° SSE 05:02:44 45° E 05:06:47 10° NNE visible
21 Sep 3.8 05:06:30 10° S 05:10:43 69° E 05:14:56 10° NNE visible
22 Sep 3.3 05:14:31 10° S 05:18:45 80° W 05:23:00 10° N visible
23 Sep 6.4 03:47:55 10° ESE 03:50:03 14° E 03:52:10 10° NE visible
23 Sep 3.6 05:22:49 11° SSW 05:26:49 53° WNW 05:30:58 10° N visible
24 Sep 5.9 03:55:19 12° SE 03:57:56 20° E 04:01:00 10° NE visible
24 Sep 4.1 05:31:55 15° SW 05:34:55 35° WNW 05:38:49 10° N visible
25 Sep 5.3 04:04:16 22° SE 04:05:50 28° E 04:09:28 10° NNE visible
25 Sep 4.6 05:40:51 17° WSW 05:43:04 25° WNW 05:46:34 10° NNW visible
26 Sep 4.5 04:13:06 38° ESE 04:13:47 42° E 04:17:46 10° NNE visible
26 Sep 5.0 05:49:42 15° W 05:51:15 17° WNW 05:54:06 10° NNW visible
27 Sep 3.8 04:21:51 63° E 04:21:51 63° E 04:25:57 10° NNE visible
27 Sep 5.3 05:58:25 11° W 05:59:28 12° WNW 06:01:12 10° NW visible
28 Sep 3.7 04:30:30 61° N 04:30:30 61° N 04:34:01 10° N visible
29 Sep 6.6 03:02:32 11° ENE 03:02:32 11° ENE 03:02:57 10° ENE visible
29 Sep 4.2 04:39:06 39° NNW 04:39:06 39° NNW 04:42:00 10° N visible
